IW1CGW-23 Weather Reports


time (UTC)temp
C
wind
direction
speed
KPH
gust
KPH
rain 1hr
cm
rain 24hr
cm
rain mn
cm
humidity
%
barometer
mb
20260508013034 12 0.0 0.0 0.00 0.00 0.00 85 1013.7
20260508010433 12 0.0 0.0 0.00 0.00 0.00 85 1013.8
20260508005133 12 0.0 0.0 0.00 0.00 0.00 85 1014.0
20260508002532 12 0.0 0.0 0.00 0.00 0.00 85 1014.4
20260508001231 12 0.0 0.0 0.00 0.00 0.00 85 1014.5
20260507225427 13 0.0 0.0 0.00 0.00 0.00 85 1015.1
20260507213622 13 0.0 0.0 0.00 0.00 0.00 83 1015.0
20260507212321 13 0.0 0.0 0.00 0.00 0.00 83 1014.9
20260507205719 14 0.0 0.0 0.00 0.00 0.00 83 1014.8
20260507203117 14 0.0 0.0 0.00 0.00 0.00 82 1014.7
20260507201816 14 0.0 0.0 0.00 0.00 0.00 81 1014.7
20260507195213 15 0.0 0.0 0.00 0.00 0.00 80 1014.7
20260507190007 16 0.0 0.0 0.00 0.00 0.00 77 1014.1
20260507184705 16 0.0 0.0 0.00 0.00 0.00 77 1014.1
20260507183403 16 0.0 0.0 0.00 0.00 0.00 77 1014.1
20260507180758 17 0.0 0.0 0.00 0.00 0.00 76 1013.9
20260507175456 17 0.0 0.0 0.00 0.00 0.00 76 1013.8
20260507172851 17 0.0 0.0 0.00 0.00 0.00 76 1013.7
20260507171549 17 0.0 0.0 0.00 0.00 0.00 77 1013.7
20260507170246 17 0.0 0.0 0.00 0.00 0.00 76 1014.0
20260507164944 17 0.0 0.0 0.00 0.00 0.00 76 1014.1
20260507163640 17 0.0 0.0 0.00 0.00 0.00 77 1014.0
20260507161038 17 0.0 0.0 0.00 0.00 0.00 76 1013.9
20260507154432 17 0.0 0.0 0.00 0.00 0.00 76 1013.7
20260507150522 18 0.0 0.0 0.00 0.00 0.00 76 1013.8
20260507145215 18 0.0 0.0 0.00 0.00 0.00 76 1013.8
20260507143912 18 0.0 0.0 0.00 0.00 0.00 75 1013.9
20260507142613 18 0.0 0.0 0.00 0.00 0.00 74 1013.9
20260507141305 18 0.0 0.0 0.00 0.00 0.00 74 1014.0
20260507132051 18 0.0 0.0 0.00 0.00 0.00 74 1014.5
20260507124141 18 0.0 0.0 0.00 0.00 0.00 76 1014.4
20260507120231 18 0.0 0.0 0.00 0.00 0.00 75 1014.1
20260507113622 18 0.0 0.0 0.00 0.00 0.00 74 1014.1
20260507105705 20 0.0 0.0 0.00 0.00 0.00 72 1014.4
20260507103054 20 0.0 0.0 0.00 0.00 0.00 71 1014.4
20260507101748 20 0.0 0.0 0.00 0.00 0.00 71 1014.3
20260507100442 20 0.0 0.0 0.00 0.00 0.00 70 1014.4
20260507095137 20 0.0 0.0 0.00 0.00 0.00 70 1014.4
20260507084607 21 0.0 0.0 0.00 0.00 0.00 68 1014.0
20260507081955 21 0.0 0.0 0.00 0.00 0.00 67 1013.7
20260507074042 20 0.0 0.0 0.00 0.00 0.00 68 1013.7
20260507071428 23 0.0 0.0 0.00 0.00 0.00 64 1013.5
20260507064816 20 0.0 0.0 0.00 0.00 0.00 69 1013.4
20260507063507 18 0.0 0.0 0.00 0.00 0.00 71 1013.2
20260507054250 16 0.0 0.0 0.00 0.00 0.00 79 1012.7
20260507052953 15 0.0 0.0 0.00 0.00 0.00 81 1012.6
20260507051651 14 0.0 0.0 0.00 0.00 0.00 83 1012.4
20260507050343 13 0.0 0.0 0.00 0.00 0.00 85 1012.1
20260507045042 12 0.0 0.0 0.00 0.00 0.00 86 1012.0
20260507041141 11 0.0 0.0 0.00 0.00 0.00 86 1011.9
20260507035841 11 0.0 0.0 0.00 0.00 0.00 85 1011.9
20260507031940 11 0.0 0.0 0.00 0.00 0.00 85 1011.7
20260507030640 12 0.0 0.0 0.00 0.00 0.00 85 1011.8
20260507024039 12 0.0 0.0 0.00 0.00 0.00 85 1011.6
20260507020138 12 0.0 0.0 0.00 0.00 0.00 85 1011.3